Temp
20 20 20 20 20 18 18 20 20 21 23 23 22 22 23 23 23 24 18 18 18 18 17 18 18 17 16 16 16 16 16 17 17 17 17 16 16 16 16 17 17 17 16 16 15 15 15 15 15
19 20 20 17 19 19 19 19 20 21 22 22 22 22 23 24 20 17 17 17 18 17 17 17 18 17 16 16 16 16 16 16 17 17 16 16 16 17 17 17 17 16 16 16 16 15 15 15 16
19 19 19 19 18 19 19 19 20 21 20 21 23 21 22 23 19 18 19 18 17 17 17 17 17 17 16 16 16 16 16 17 17 16 16 16 17 16 16 16 16 16 16 16 16 15 15 16 16
19 19 17 18 19 19 19 21 21 21 22 22 21 22 21 20 20 20 19 18 17 17 17 17 17 17 16 16 16 16 16 16 17 17 16 16 16 16 16 16 16 16 16 16 16 15 16 16 16
17 16 18 17 18 20 20 20 20 21 21 21 22 23 21 19 19 19 19 18 17 17 17 17 17 16 16 16 16 16 16 17 16 17 17 17 16 16 16 16 16 16 16 15 15 15 15 16 16
17 16 17 17 19 20 20 21 20 21 21 21 22 21 22 19 18 18 18 17 17 17 17 17 17 17 16 16 16 16 16 16 17 17 16 16 16 16 16 16 16 16 16 15 15 15 15 16 16
16 16 16 17 18 19 21 21 21 20 20 21 20 21 21 19 18 17 17 17 17 17 17 17 17 17 17 17 16 16 16 17 16 17 17 16 16 16 16 16 16 16 16 15 15 15 15 15 15
14 15 16 16 17 18 16 17 19 19 20 20 20 20 20 18 18 17 16 16 16 16 16 16 17 17 17 17 16 16 16 16 16 17 16 16 16 16 16 16 16 16 16 15 15 14 14 15 15
15 15 15 16 17 17 14 15 17 17 18 19 20 19 18 17 16 16 16 16 16 16 16 16 16 16 17 17 16 16 16 16 16 17 16 16 15 16 16 16 16 16 15 15 15 13 14 15 15
13 14 14 13 13 13 13 14 15 16 16 17 19 19 18 17 15 15 15 16 16 16 16 16 16 16 16 16 17 16 16 16 16 16 16 16 15 16 16 16 15 16 15 15 15 14 15 14 14
11 13 12 13 13 12 13 13 14 15 15 17 17 18 17 17 15 15 16 16 16 16 16 16 16 16 16 16 16 16 16 16 15 16 16 15 15 16 15 15 15 15 14 14 14 14 14 14 14
13 11 12 11 12 11 12 13 13 14 15 16 15 15 16 16 17 16 16 16 16 16 16 16 16 16 16 16 16 15 15 15 15 15 16 15 15 15 15 15 14 14 14 14 14 13 13 13 13
10 10 10 10 10 11 11 11 12 12 13 12 13 14 14 14 15 16 16 16 16 15 15 16 15 16 16 16 16 15 15 15 15 15 15 15 15 15 14 14 14 13 14 14 13 13 12 12 12
9 9 9 9 10 10 10 11 10 12 12 12 13 14 13 13 14 15 15 15 16 16 15 16 15 15 15 16 16 15 15 15 15 15 15 15 15 14 14 14 14 13 13 13 13 13 12 12 11
9 9 9 11 10 9 10 11 11 11 10 11 12 12 12 12 13 14 15 15 15 16 15 16 15 15 15 15 16 15 15 15 15 15 15 15 15 14 14 14 13 13 13 13 13 12 11 11 10
8 7 8 10 9 10 11 9 11 12 11 12 11 12 12 11 12 13 13 14 15 15 15 15 15 15 15 15 15 15 15 15 14 15 15 15 14 14 14 14 13 13 13 13 12 11 10 10 9
7 8 7 8 9 9 10 9 11 12 11 11 11 11 11 11 11 11 12 13 14 15 15 15 15 15 15 15 15 15 15 15 14 14 15 14 15 14 14 14 13 13 13 12 12 11 10 9 7
8 7 7 7 8 8 9 9 11 11 11 10 10 9 9 9 10 9 9 10 12 14 15 15 15 15 15 15 14 15 15 15 14 14 14 15 15 15 14 14 13 13 13 12 11 10 8 8 6
7 6 7 8 9 8 8 8 10 11 10 9 8 8 9 9 10 9 9 9 9 11 12 14 15 15 15 15 14 14 14 14 14 14 14 15 15 14 14 14 13 12 12 12 11 9 8 5 5
8 8 7 8 8 8 8 8 9 10 9 9 9 9 9 9 9 9 9 8 8 8 9 11 13 15 15 15 15 15 14 14 14 14 14 15 14 14 13 14 13 12 11 9 9 9 5 4 5
8 8 8 8 8 8 8 8 8 10 10 10 9 9 9 9 8 8 8 8 7 7 8 8 9 11 15 15 15 15 14 14 14 14 14 14 13 13 13 13 13 12 12 10 8 9 8 4 5
8 8 7 7 7 5 8 6 8 9 9 9 9 10 9 9 9 8 8 7 7 7 7 7 8 10 12 15 15 14 14 13 14 13 13 13 13 12 12 13 13 13 13 10 9 7 8 7 4
8 7 7 7 6 6 7 7 8 10 10 9 9 10 9 9 8 8 7 7 7 6 6 6 6 8 11 13 15 14 14 14 13 12 12 12 12 12 12 12 11 12 11 10 9 7 8 7 5
7 7 7 6 7 5 7 7 9 10 9 9 9 9 9 8 8 7 7 6 6 6 5 5 5 6 8 12 15 14 14 14 12 11 10 11 11 12 12 12 12 12 11 10 8 7 7 6 5
7 5 2 3 2 5 8 8 9 9 9 9 9 9 7 8 7 6 6 6 5 5 5 4 5 5 7 10 13 14 14 13 13 10 10 9 9 10 10 11 11 11 11 9 8 7 6 5 5
6 5 1 2 4 7 9 7 10 9 9 9 9 8 8 7 6 5 5 4 4 4 4 4 4 4 5 7 11 13 13 12 12 11 10 9 9 10 9 10 9 10 9 8 6 5 4 4 4
5 2 6 6 2 5 8 9 10 9 9 9 7 7 7 6 5 4 3 3 3 3 4 4 4 4 4 6 9 13 13 11 10 10 10 9 8 7 6 8 7 7 6 6 5 5 4 3 3
5 6 3 1 3 4 7 9 10 10 8 7 5 5 4 4 3 3 2 2 2 3 4 4 4 4 4 5 8 12 12 10 9 9 8 7 5 4 3 3 5 4 3 3 2 2 2 3 2
2 1 2 5 5 5 7 9 10 8 7 5 4 4 3 2 2 2 1 1 2 3 3 4 4 4 4 5 7 9 9 8 7 6 5 4 3 2 2 1 0 0 1 1 2 1 1 2 0
5 3 2 1 5 5 5 7 10 10 8 6 4 3 2 1 1 1 1 1 2 2 2 2 2 3 5 5 6 7 7 6 5 3 2 2 1 1 1 1 0 0 1 2 2 0 -0 -0 -4
Height
788 787 784 784 803 805 812 803 794 789 781 770 770 773 771 766 771 780 764 766 770 771 777 780 785 787 791 793 798 802 805 808 811 813 816 818 820 822 824 826 828 830 832 834 835 836 837 838 840
787 786 784 790 808 815 807 797 793 785 777 771 768 770 769 764 761 762 763 765 770 772 775 779 782 787 791 794 797 800 804 808 811 813 815 818 821 823 825 827 828 831 833 835 836 837 838 839 840
787 784 789 797 806 808 805 791 787 780 775 772 771 769 766 761 759 758 759 762 769 774 775 780 782 786 787 793 797 800 803 807 810 813 815 818 820 823 825 827 828 831 834 836 837 838 839 840 841
784 785 795 805 802 794 789 779 777 778 771 770 772 774 765 760 758 756 757 761 766 773 776 779 784 784 787 790 795 799 803 807 810 813 815 818 820 823 825 827 829 832 833 835 837 838 839 841 842
788 795 804 810 800 788 779 774 776 778 776 772 770 770 767 762 760 758 757 760 763 770 773 779 782 785 786 789 793 796 800 806 809 813 815 818 820 823 825 828 830 831 833 835 837 838 839 841 843
794 796 808 805 791 784 777 772 776 775 772 769 771 768 760 757 758 761 759 760 765 768 772 777 780 785 787 789 791 797 800 803 807 811 815 818 820 823 826 829 830 832 833 835 837 838 839 841 843
796 800 801 797 794 788 777 770 776 777 774 772 769 770 761 762 763 763 762 764 764 768 772 776 779 784 787 790 793 795 799 805 808 809 813 816 819 823 826 828 831 833 835 836 836 838 840 841 844
794 796 800 799 796 791 788 782 777 778 776 769 768 774 769 764 763 764 768 769 768 768 771 774 778 782 787 789 794 796 798 803 808 810 812 814 818 822 825 828 831 833 835 836 837 838 840 842 844
791 800 802 799 793 789 792 793 782 781 779 774 769 770 769 765 765 765 768 771 769 768 769 772 775 779 783 788 791 795 800 802 806 810 812 813 817 819 822 827 829 831 833 836 837 839 840 841 844
799 804 802 803 801 801 800 797 793 788 784 778 773 767 767 767 767 767 766 766 767 765 766 769 772 775 780 785 789 793 796 801 804 807 812 814 817 817 822 824 828 830 831 834 837 838 840 843 845
808 807 809 803 804 805 800 796 791 789 785 778 777 770 768 768 767 767 765 764 765 768 768 768 770 773 777 781 785 790 793 796 801 806 807 814 817 818 820 824 825 828 830 833 836 838 841 843 845
807 807 807 806 804 805 800 796 792 787 783 779 777 774 770 767 763 761 760 759 763 764 765 767 769 771 773 777 781 784 788 792 795 802 804 810 815 818 819 821 824 827 831 833 835 838 841 844 846
811 811 809 807 806 803 799 799 795 789 783 781 777 774 770 766 762 759 756 756 756 757 759 763 766 768 769 773 776 779 783 787 791 796 802 805 809 814 818 821 823 825 828 833 834 838 841 844 847
816 815 812 807 804 803 802 796 796 785 780 778 773 768 766 763 760 756 754 750 750 751 753 757 760 763 766 767 770 774 778 782 786 790 795 799 804 808 813 817 822 824 827 830 834 837 841 844 847
815 815 811 804 805 805 801 791 791 782 780 776 771 766 763 760 757 753 750 748 746 744 746 748 753 757 759 762 765 769 773 777 779 784 789 793 797 803 809 815 818 822 825 828 832 836 839 843 847
821 825 825 805 807 802 801 798 786 777 776 768 767 763 758 755 752 748 746 744 742 740 739 740 743 748 752 756 761 764 768 773 775 778 784 789 793 798 804 808 815 818 822 826 830 833 838 842 846
830 833 832 821 807 810 805 797 781 769 771 768 765 759 756 752 750 746 743 739 736 736 734 735 737 739 743 748 753 757 762 765 771 773 777 782 788 794 799 804 810 814 817 823 826 831 834 839 845
832 836 831 827 811 808 802 793 775 762 767 764 764 762 759 754 750 745 740 735 732 730 729 729 730 731 734 739 745 748 753 758 761 766 771 775 780 787 793 798 805 808 812 818 824 826 833 837 843
833 837 832 819 808 809 798 789 767 761 761 763 765 762 759 755 750 745 740 735 730 726 724 724 724 724 726 728 732 734 734 747 754 759 764 769 773 778 784 789 796 802 805 809 817 821 827 838 840
829 827 826 811 806 809 796 781 763 763 761 760 759 759 756 752 747 742 738 734 731 727 723 720 719 719 719 721 723 727 721 735 743 751 757 762 767 771 773 780 788 794 800 806 810 815 823 833 836
823 824 820 822 809 801 797 780 768 756 759 758 757 754 754 752 745 741 736 733 729 725 722 718 716 714 714 714 716 721 725 730 735 741 746 751 757 764 767 772 780 786 792 798 805 807 812 820 831
825 819 822 820 820 827 803 811 771 760 761 758 758 752 750 747 743 742 736 730 726 723 719 715 711 709 707 708 709 709 713 721 726 731 737 741 745 754 756 763 773 779 783 791 799 804 804 811 822
823 822 818 815 818 818 805 809 769 755 753 756 755 749 746 744 742 737 733 729 723 718 715 711 707 703 701 702 703 703 708 713 720 726 730 736 741 746 751 758 769 774 777 785 792 799 800 807 811
826 819 814 816 815 828 805 800 765 756 753 755 752 747 744 741 736 733 728 724 719 714 710 706 702 697 695 695 696 696 701 706 712 718 724 730 736 739 745 753 763 769 773 776 783 789 794 800 808
830 835 862 850 852 826 794 793 765 755 755 751 748 742 743 737 733 728 724 720 714 709 704 701 698 692 689 688 689 691 695 698 704 711 717 724 728 733 740 745 748 758 761 770 778 784 792 799 804
839 844 876 878 852 809 782 791 756 749 748 747 745 740 735 731 728 724 720 715 710 704 698 695 693 688 685 684 682 685 689 691 698 706 711 717 722 725 732 736 745 748 757 764 772 782 789 798 802
845 861 838 832 852 825 787 769 749 748 746 741 744 742 735 729 726 719 713 709 704 698 693 689 686 683 681 680 678 678 683 687 693 701 707 712 717 721 725 730 736 744 753 758 768 775 785 795 803
842 840 856 866 852 835 791 768 749 746 748 749 748 741 734 732 724 718 711 704 698 691 686 683 680 677 675 675 675 674 678 685 690 696 702 709 715 722 728 733 733 742 752 760 768 776 788 794 805
857 864 855 842 835 832 801 761 748 752 754 750 746 739 737 729 722 714 706 699 692 685 680 676 674 672 670 670 670 668 674 681 689 693 700 707 714 722 728 735 740 742 752 763 767 780 791 795 804
841 853 855 867 840 829 821 779 746 745 748 748 745 743 737 730 722 712 703 694 685 679 674 671 668 667 666 667 667 667 673 680 688 694 701 708 716 723 728 737 750 755 757 768 771 784 790 795 807
Wind_Speed
14 9 2 3 2 3 2 4 2 6 5 1 2 3 4 1 4 3 2 20 24 36 32 31 28 27 26 25 21 22 21 20 19 19 19 18 17 17 16 17 15 14 15 13 14 16 16 14 15
12 6 2 2 3 2 3 4 7 6 5 5 2 2 3 4 2 1 8 13 27 34 34 32 30 28 25 25 23 22 23 21 20 19 19 18 17 15 16 17 16 15 14 15 16 16 14 16 15
6 4 3 1 2 4 4 4 4 3 8 2 4 3 3 2 1 5 6 20 29 31 34 32 31 31 29 26 25 24 24 22 21 20 21 19 19 18 17 16 17 15 16 16 15 14 15 15 12
9 5 3 2 6 4 5 5 3 6 3 2 1 7 4 4 1 3 10 25 31 30 33 32 30 31 30 28 28 24 23 23 22 21 20 20 19 20 18 18 16 17 17 16 15 13 15 12 12
5 2 1 4 4 5 5 4 3 5 3 4 1 5 4 2 4 6 17 28 34 32 34 34 32 30 30 29 30 28 25 23 23 21 20 20 21 22 18 17 18 18 17 15 14 13 15 14 11
2 2 3 6 10 8 4 5 1 3 3 5 3 3 4 1 4 9 21 28 30 32 35 36 33 31 28 26 30 28 26 26 24 23 21 19 22 19 17 18 19 18 16 14 13 12 13 14 13
5 3 4 4 4 6 2 1 1 4 3 4 4 3 3 5 5 10 19 27 34 28 36 36 34 31 28 25 29 30 27 25 25 25 23 20 19 17 21 21 18 17 14 14 13 11 12 13 13
3 3 2 3 3 6 8 9 4 4 3 6 0 2 5 6 8 10 14 21 29 27 35 36 35 34 30 27 28 28 27 26 25 24 25 23 21 21 21 20 17 17 15 13 11 13 14 14 15
2 1 3 4 4 2 7 8 5 5 3 5 4 1 6 11 4 10 12 16 21 28 29 33 35 36 34 30 27 28 26 27 25 24 25 24 23 25 24 22 18 18 16 13 12 14 16 17 18
4 2 3 3 4 4 9 3 8 6 8 6 13 0 13 8 4 9 12 16 22 27 29 33 36 37 37 34 30 29 30 28 27 27 25 23 25 26 25 25 18 18 16 15 15 15 16 18 18
3 3 3 1 3 6 5 6 3 4 5 4 8 17 11 10 7 12 16 18 20 19 23 30 31 37 38 33 35 34 34 32 30 28 28 26 26 26 27 25 21 20 19 19 17 17 18 18 19
0 1 1 5 6 6 6 5 5 7 7 9 12 15 11 13 11 15 20 21 18 21 25 28 29 32 37 34 37 35 34 36 34 32 30 28 28 27 28 27 22 21 20 19 18 19 19 18 18
3 4 7 7 7 6 7 4 5 12 13 9 8 9 11 12 13 16 20 18 21 25 24 27 29 34 33 36 35 35 36 38 38 36 33 33 33 31 28 26 24 22 21 20 21 21 20 19 20
3 3 8 4 7 5 5 10 2 5 4 11 14 17 13 12 15 17 15 19 23 24 28 27 30 32 32 32 35 33 34 39 40 40 38 36 34 35 33 29 25 24 22 21 22 22 21 21 22
3 5 7 0 4 4 7 3 3 8 7 14 16 16 13 12 20 18 20 18 21 26 29 34 31 36 32 33 30 35 33 36 41 42 41 39 37 36 35 31 28 26 23 23 23 23 23 23 23
4 4 6 7 8 4 5 7 8 16 14 22 19 17 17 12 14 23 25 24 22 23 28 36 35 36 37 38 33 32 32 34 36 42 42 40 38 36 35 35 31 29 26 26 26 26 25 25 24
7 3 4 9 2 3 2 16 16 23 18 17 16 18 14 13 13 20 23 24 25 22 27 31 37 38 40 38 37 36 34 37 35 37 42 41 40 36 36 35 34 30 30 29 30 29 29 29 27
4 4 4 9 5 5 15 18 23 23 14 15 12 11 8 8 7 16 20 18 20 21 23 29 35 39 40 39 37 37 34 37 35 38 41 43 41 40 38 37 37 35 33 33 31 32 28 31 29
3 4 10 12 11 5 12 19 25 19 14 6 5 5 7 8 8 16 19 22 20 16 13 25 30 35 37 37 36 33 36 35 34 37 39 42 42 44 43 40 40 38 37 38 36 35 34 28 32
2 7 8 10 4 7 14 23 21 11 5 2 2 5 6 8 10 15 22 20 23 21 18 15 20 32 36 35 31 33 39 38 38 35 37 43 43 45 46 43 42 43 37 38 40 39 31 20 34
3 4 5 6 15 2 6 9 6 4 1 3 1 3 5 9 11 12 16 22 22 23 23 19 20 17 33 34 34 31 28 26 31 35 38 43 43 45 47 46 45 43 41 40 42 43 35 26 29
6 3 7 12 9 4 6 6 6 3 5 2 5 7 6 9 10 10 12 20 20 23 26 25 23 22 20 36 30 29 30 24 29 36 36 40 46 43 40 44 44 44 41 41 43 39 38 36 27
8 9 14 9 5 4 1 4 9 3 1 2 7 10 11 10 11 15 11 18 25 23 26 28 27 24 25 28 37 33 33 30 25 28 35 38 40 42 44 40 42 41 42 41 41 40 39 34 32
8 7 8 1 0 2 4 2 8 4 2 2 6 10 10 12 14 15 17 19 22 24 24 25 25 26 21 23 35 32 34 27 30 32 34 37 39 42 41 43 42 41 41 41 42 41 39 35 31
10 6 5 6 4 5 2 4 11 3 4 4 9 14 9 15 14 15 11 17 24 25 25 22 20 26 23 18 31 32 35 32 35 36 33 35 38 39 45 45 48 45 44 40 39 39 38 35 31
3 2 4 4 4 10 15 6 5 5 4 5 15 16 22 19 16 12 19 19 23 26 24 22 20 23 24 20 17 30 34 34 36 37 36 38 41 45 45 49 47 46 41 40 39 37 34 31 29
4 2 4 5 2 4 4 6 8 4 7 18 18 22 22 18 18 20 19 22 24 24 25 23 22 23 22 22 18 31 30 32 33 34 35 35 37 40 45 47 43 40 41 41 40 38 35 34 32
4 3 4 3 5 6 6 7 9 5 14 20 22 22 17 20 19 18 18 22 25 24 23 22 22 24 24 22 19 24 29 30 30 33 32 32 32 31 34 32 41 40 37 38 37 38 38 37 29
4 3 2 2 2 3 6 8 3 6 18 21 23 17 20 20 19 18 17 24 26 23 22 20 18 19 20 18 17 24 30 30 30 32 31 30 30 32 32 32 33 37 40 38 41 38 36 35 30
1 4 4 3 4 4 5 8 4 13 20 26 25 18 20 20 19 19 18 22 21 19 17 17 16 17 16 12 20 32 33 32 30 29 30 31 32 33 36 36 35 37 41 40 42 39 37 37 33
Wind_Direction
338 328 317 53 64 60 217 244 259 280 305 297 143 167 214 175 170 207 312 170 169 163 164 166 165 159 158 154 154 155 158 159 159 161 161 153 146 142 138 138 142 140 134 133 130 129 126 119 114
344 333 64 79 111 200 254 237 238 251 278 305 335 290 247 242 207 108 121 174 173 165 166 166 167 162 160 156 158 159 160 160 163 160 156 156 156 156 155 154 141 141 134 133 132 130 127 120 112
353 21 57 91 168 203 210 220 261 279 308 268 320 211 293 231 211 190 176 171 170 169 169 169 168 167 161 161 163 157 157 163 163 161 160 159 157 159 155 158 147 142 141 137 135 133 129 121 121
9 15 53 260 230 248 212 249 203 317 316 61 5 304 293 295 217 208 178 173 168 172 174 173 172 171 167 166 164 164 166 165 167 164 162 163 162 161 161 158 151 151 147 142 139 138 135 133 123
87 351 92 278 259 260 239 239 166 284 259 273 231 258 252 283 264 189 170 173 169 173 177 176 176 175 172 171 164 170 168 171 172 170 169 168 172 163 167 160 158 154 150 147 144 144 147 141 138
75 119 179 227 238 251 277 275 238 225 251 298 274 288 257 231 177 184 172 175 174 174 179 178 181 182 181 175 166 175 172 175 171 172 168 176 163 161 168 163 160 158 155 153 148 151 151 148 146
145 138 224 265 257 269 255 341 335 315 314 337 323 295 310 41 290 193 180 182 178 177 183 182 183 184 185 183 174 175 176 179 178 176 174 177 164 172 164 169 164 161 158 159 152 147 144 149 145
94 96 277 246 221 269 12 344 359 53 304 312 83 332 323 329 302 191 194 189 186 179 189 186 186 187 188 188 184 183 178 180 183 181 181 178 177 171 175 166 168 162 166 158 152 148 138 142 139
137 144 234 237 200 287 8 359 340 311 251 343 321 286 332 343 215 171 190 203 195 192 191 188 190 191 190 189 190 188 186 184 185 187 189 185 175 179 171 171 173 172 172 162 147 145 146 145 141
61 167 245 25 12 345 326 338 329 336 343 307 300 12 344 351 194 204 206 212 213 201 197 193 193 192 193 192 191 194 187 190 189 189 193 189 181 181 177 177 177 176 171 161 153 156 150 149 145
351 200 324 239 319 349 287 297 312 284 279 255 306 307 325 318 255 234 234 227 223 222 208 200 197 196 196 193 194 194 192 192 193 194 194 193 187 186 180 186 177 173 169 158 160 154 153 152 150
100 71 350 306 336 330 302 312 291 245 266 293 314 313 305 310 290 243 234 225 225 221 216 209 204 200 198 195 199 193 192 195 194 197 198 194 192 195 188 188 181 176 173 171 163 158 155 151 149
47 331 319 312 304 278 285 291 264 279 284 304 307 320 314 312 308 298 262 240 220 216 217 215 211 207 202 199 198 195 194 197 198 197 200 199 197 199 196 192 187 183 176 177 168 163 156 149 145
288 289 294 318 303 308 351 298 226 263 308 315 310 306 298 288 289 295 296 246 228 223 214 214 216 212 207 198 198 198 197 199 201 199 202 202 203 201 197 193 190 186 181 176 173 166 158 149 146
326 359 336 285 333 306 321 359 237 246 299 299 298 299 292 282 290 286 285 280 254 229 217 212 215 217 208 205 205 202 203 199 201 203 204 205 206 205 200 195 191 190 181 176 171 164 158 150 145
40 53 357 301 340 312 36 281 271 291 290 295 305 297 293 280 278 288 289 287 281 249 217 218 211 215 215 208 207 205 203 203 202 204 206 208 209 208 202 196 192 189 183 180 172 167 157 151 147
25 295 300 313 350 270 46 294 285 288 295 297 296 302 302 302 295 300 299 293 288 270 232 217 212 212 215 209 206 206 209 209 208 201 205 207 210 209 205 200 197 191 186 183 177 170 165 154 145
305 327 260 275 281 339 294 283 291 291 299 296 304 314 331 335 319 327 342 339 307 286 260 228 215 213 213 210 207 204 203 205 200 207 207 212 209 210 204 201 200 195 192 184 181 173 165 158 144
234 240 261 271 279 297 290 297 287 303 302 297 330 4 342 325 310 328 337 347 350 340 313 239 227 217 213 204 203 202 195 200 203 205 207 213 214 211 202 200 197 198 196 191 188 175 164 145 153
244 276 282 284 253 328 306 290 287 305 286 202 112 331 314 314 327 341 339 334 343 338 334 311 255 229 220 212 203 202 198 203 206 209 210 215 213 212 200 198 199 197 193 185 184 177 151 155 160
274 241 292 291 321 316 328 283 333 325 350 174 305 283 304 305 315 326 331 325 323 329 332 321 306 291 233 221 208 205 198 196 195 200 207 210 211 211 202 200 200 196 198 193 186 182 173 161 178
309 186 291 300 333 297 67 288 296 284 294 81 302 324 319 318 328 302 311 317 315 314 320 320 308 292 271 230 214 191 184 189 199 196 199 200 206 203 195 198 201 198 197 200 194 186 182 174 173
257 320 293 302 281 306 223 253 273 322 155 304 314 327 317 322 317 313 303 305 306 306 311 313 312 298 261 246 223 203 198 200 197 192 194 197 199 201 199 201 203 197 197 199 196 189 190 187 176
298 315 317 104 35 272 233 182 277 274 228 308 285 296 297 318 318 313 301 301 301 301 304 305 307 300 278 257 231 209 204 201 186 187 189 193 195 196 198 196 203 200 200 199 199 192 193 191 188
12 5 346 356 4 236 150 286 252 248 217 242 314 332 316 316 315 305 305 311 306 302 301 297 300 296 293 276 235 219 206 203 196 191 186 186 188 189 193 195 196 198 196 198 197 195 194 194 190
345 58 125 288 297 293 282 234 257 193 225 277 329 339 330 321 316 310 311 306 303 298 293 290 292 292 296 279 270 215 205 195 197 197 193 193 192 192 194 189 194 191 190 188 188 187 184 185 176
287 2 193 261 248 278 268 282 289 212 317 340 336 325 321 320 323 314 310 305 300 295 292 288 285 285 288 288 287 206 202 192 189 194 202 193 192 191 187 188 184 182 182 179 179 177 172 171 165
153 310 10 0 309 296 266 281 272 311 337 322 331 324 324 322 316 313 309 306 299 293 293 290 283 277 282 281 266 208 192 191 189 188 183 185 183 177 175 172 174 170 168 167 166 157 158 156 155
344 351 345 268 237 272 306 294 237 0 328 334 330 328 331 326 324 319 313 308 300 299 290 281 276 278 277 268 265 170 170 171 171 173 173 172 168 166 160 154 143 148 151 150 147 147 150 145 142
263 225 153 128 302 269 269 270 295 336 339 336 327 337 332 329 325 321 319 313 309 306 301 293 283 271 269 262 168 159 159 161 163 157 154 157 147 151 149 144 140 138 142 147 144 146 147 140 131